Home > Time Zones > World Clock > Weather > Canada > Ajax > Past weeks

Flag for Canada Weather past 2 weeks in Ajax, Ontario, Canada

50 °F

Passing clouds.

Feels Like: 46 °F
Forecast: 52 / 58 °F
Wind: 12 mph from East

Location: Toronto Buttonville

Current Time: Oct 3, 2015 at 11:19:27 PM

Latest Report: Oct 3, 2015 at 11:00 PM

Visibility: 15 mi

Pressure: 30.38 "Hg

Humidity: 62%

Dew point: 37 °F

Location of AjaxLocation

Historic Weather in Ajax — Graph


Ajax temperature yesterday

Maximum temperature yesterday: 54 °F (at 4:00 PM)
Minimum temperature yesterday: 39 °F (at 5:00 AM)
Average temperature yesterday: 46 °F

Past Weeks' High & Low Weather Summary

High77 °F (Sep 23, 3:00 PM)100% (Sep 23, 6:00 AM)30.49 "Hg (Sep 23, 6:00 AM)
Low39 °F (Oct 1, 6:00 AM)34% (Oct 1, 5:00 PM)29.65 "Hg (Sep 19, 2:00 PM)
Average59 °F72%30.23 "Hg
* Reported Sep 18 10:00 PM — Oct 3 10:00 PM, Ajax, Weather by CustomWeather, © 2015

Note: Actual official high and low records may vary slightly from our data, if they occured in-between our weather recording intervals... More about our weather records


Ajax weather history for previous 24 hours

Time TempWeatherWind HumidityBarometerVisibility
10:00 PM
Sat, Oct 3
48 °FPartly cloudy.12 mph66%30.39 "Hg15 mi
9:00 PM48 °FPassing clouds.10 mph66%30.40 "Hg14 mi
8:00 PM46 °FSprinkles. Passing clouds.8 mph76%30.40 "Hg12 mi
7:00 PM48 °FLight rain. More clouds than sun.9 mph71%30.40 "Hg12 mi
5:00 PM50 °FOvercast.14 mph58%30.40 "Hg15 mi
4:45 PM50 °FLight rain. Overcast.16 mph54%30.40 "Hg15 mi
4:00 PM52 °FOvercast.18 mph44%30.40 "Hg15 mi
3:00 PM52 °FMostly cloudy.15 mph44%30.40 "Hg15 mi
2:00 PM52 °FMostly cloudy.18 mph44%30.40 "Hg15 mi
1:00 PM52 °FBroken clouds.16 mph44%30.42 "Hg15 mi
12:00 PM50 °FMore clouds than sun.17 mph43%30.43 "Hg15 mi
11:00 AM50 °FMostly cloudy.20 mph43%30.44 "Hg15 mi
10:00 AM46 °FBroken clouds.15 mph53%30.45 "Hg15 mi
9:00 AM45 °FBroken clouds.18 mph57%30.46 "Hg15 mi
8:00 AM43 °FPassing clouds.15 mph61%30.45 "Hg15 mi
7:00 AM43 °FPassing clouds.13 mph57%30.45 "Hg15 mi
6:00 AM43 °FOvercast.13 mph57%30.44 "Hg15 mi
5:00 AM43 °FHigh level clouds.16 mph53%30.44 "Hg15 mi
4:00 AM43 °FHigh level clouds.14 mph53%30.44 "Hg15 mi
3:00 AM45 °FHigh level clouds.9 mph53%30.46 "Hg15 mi
2:00 AM45 °FHigh level clouds.15 mph53%30.47 "Hg15 mi
1:00 AM45 °FHigh level clouds.15 mph53%30.47 "Hg15 mi
11:00 PM
Fri, Oct 2
45 °FHigh level clouds.8 mph57%30.47 "Hg15 mi
Weather by CustomWeather, © 2015

See weather overviewHow to use our weather pages